Location: *
(40.7873°S, 98.7174°E)
Time: 13:23:35
(UTC+00:00)

Cosmos 2233 Rocket - Visible Passes

Search period start: 26 September 2022 00:00
Search period end: 06 October 2022 00:00
Orbit: 954 x 990 km, 82.9° (Epoch: 25 September)

Date Brightness Start Highest point End Pass type
(mag) Time Alt. Az. Time Alt. Az. Time Alt. Az.
26 Sep 7.0 12:41:48 10° W 12:45:11 15° WSW 12:48:36 10° SSW visible
26 Sep 4.5 21:48:37 10° S 21:54:53 66° E 22:01:08 10° NNE visible
27 Sep 6.7 20:29:09 10° SSE 20:33:13 17° ESE 20:37:15 10° ENE visible
27 Sep 4.0 22:12:53 10° SSW 22:19:09 72° W 22:25:24 10° N visible
28 Sep 6.1 11:42:23 10° NW 11:47:51 33° WSW 11:53:22 10° S visible
28 Sep 5.9 20:52:24 10° SSE 20:57:53 30° ESE 21:03:20 10° NE visible
28 Sep 4.4 22:37:26 10° SSW 22:43:15 41° W 22:49:03 10° NNW visible
29 Sep 6.9 12:08:18 10° WNW 12:12:29 19° WSW 12:16:44 10° SSW visible
29 Sep 4.8 21:16:13 10° S 21:22:22 53° ESE 21:28:30 10° NNE visible
30 Sep 6.8 19:57:22 10° SE 20:00:31 14° ESE 20:03:39 10° E visible
30 Sep 4.0 21:40:20 10° S 21:46:41 89° W 21:53:00 10° N visible
01 Oct 6.1 20:20:12 10° SSE 20:25:16 25° ESE 20:30:19 10° NE visible
01 Oct 4.2 22:04:46 10° SSW 22:10:50 51° W 22:16:54 10° NNW visible
02 Oct 5.2 20:43:50 10° S 20:49:49 43° ESE 20:55:46 10° NNE visible
03 Oct 7.2 12:01:54 10° W 12:04:35 13° WSW 12:07:18 10° SW visible
03 Oct 6.9 19:26:11 10° SE 19:27:48 11° ESE 19:29:24 10° ESE visible
03 Oct 4.2 21:07:52 10° S 21:14:12 75° E 21:20:31 10° NNE visible
04 Oct 6.3 19:48:05 10° SSE 19:52:37 20° ESE 19:57:08 10° ENE visible
04 Oct 4.0 21:32:11 10° SSW 21:38:25 63° W 21:44:38 10° N visible
05 Oct 5.5 20:11:31 10° S 20:17:15 35° ESE 20:22:57 10° NE visible
05 Oct 4.6 21:56:50 10° SSW 22:02:29 36° W 22:08:07 10° NNW visible
